HS6PNA-2 Weather Reports


time (UTC)temp
F
wind
direction
speed
knots
gust
knots
rain 1hr
in
rain 24hr
in
rain mn
in
humidity
%
barometer
mb
20260509101946 86 0 0.0 0.0 0.00 0.00 0.00 35 1001.0
20260509100422 86 0 0.0 0.0 0.00 0.00 0.00 37 1001.0
20260509094858 87 0 0.0 0.0 0.00 0.00 0.00 42 1001.0
20260509093333 86 0 0.0 0.0 0.00 0.00 0.00 48 1001.0
20260509091808 86 0 0.0 0.0 0.00 0.00 0.00 46 1001.0
20260509090243 86 0 0.0 0.0 0.00 0.00 0.00 45 1001.0
20260509084719 86 0 0.0 0.0 0.00 0.00 0.00 42 1002.0
20260509083154 87 0 0.0 0.0 0.00 0.00 0.00 40 1002.0
20260509081629 86 0 0.0 0.0 0.00 0.00 0.00 42 1002.0
20260509080130 86 0 0.0 0.0 0.00 0.00 0.00 41 1002.0
20260509074541 86 0 0.0 0.0 0.00 0.00 0.00 40 1002.0
20260509073016 88 0 0.0 0.0 0.00 0.00 0.00 37 1002.0
20260509071453 86 0 0.0 0.0 0.00 0.00 0.00 39 1003.0
20260509065927 86 0 0.0 0.0 0.00 0.00 0.00 38 1003.0
20260509064403 88 0 0.0 0.0 0.00 0.00 0.00 35 1003.0
20260509062838 88 0 0.0 0.0 0.00 0.00 0.00 34 1004.0
20260509061314 89 0 0.0 0.0 0.00 0.00 0.00 37 1004.0
20260509055749 91 0 0.0 0.0 0.00 0.00 0.00 46 1004.0
20260509054225 96 0 0.0 0.0 0.00 0.00 0.00 51 1004.0
20260509052700 95 0 0.0 0.0 0.00 0.00 0.00 52 1005.0
20260509051136 95 0 0.0 0.0 0.00 0.00 0.00 53 1005.0
20260509045612 95 0 0.0 0.0 0.00 0.00 0.00 53 1006.0
20260509044047 94 0 0.0 0.0 0.00 0.00 0.00 53 1006.0
20260509042523 93 0 0.0 0.0 0.00 0.00 0.00 55 1006.0
20260509040958 93 0 0.0 0.0 0.00 0.00 0.00 54 1006.0
20260509035434 93 0 0.0 0.0 0.00 0.00 0.00 54 1007.0
20260509033909 93 0 0.0 0.0 0.00 0.00 0.00 54 1007.0
20260509032345 92 0 0.0 0.0 0.00 0.00 0.00 55 1007.0
20260509030820 92 0 0.0 0.0 0.00 0.00 0.00 55 1007.0
20260509025255 92 0 0.0 0.0 0.00 0.00 0.00 55 1007.0
20260509023729 92 0 0.0 0.0 0.00 0.00 0.00 55 1007.0
20260509022204 91 0 0.0 0.0 0.00 0.00 0.00 55 1007.0
20260509020638 91 0 0.0 0.0 0.00 0.00 0.00 56 1008.0
20260509015111 91 0 0.0 0.0 0.00 0.00 0.00 55 1008.0
20260509013546 91 0 0.0 0.0 0.00 0.00 0.00 56 1007.0
20260509012021 90 0 0.0 0.0 0.00 0.00 0.00 56 1007.0
20260509010456 90 0 0.0 0.0 0.00 0.00 0.00 57 1007.0
20260509004931 90 0 0.0 0.0 0.00 0.00 0.00 57 1007.0
20260509003406 90 0 0.0 0.0 0.00 0.00 0.00 57 1007.0
20260509001841 90 0 0.0 0.0 0.00 0.00 0.00 56 1007.0
20260509000318 90 0 0.0 0.0 0.00 0.00 0.00 55 1007.0
20260508234751 90 0 0.0 0.0 0.00 0.00 0.00 55 1006.0
20260508233226 90 0 0.0 0.0 0.00 0.00 0.00 55 1006.0
20260508231701 90 0 0.0 0.0 0.00 0.00 0.00 55 1006.0
20260508230136 90 0 0.0 0.0 0.00 0.00 0.00 56 1006.0
20260508224611 90 0 0.0 0.0 0.00 0.00 0.00 55 1005.0
20260508223047 90 0 0.0 0.0 0.00 0.00 0.00 56 1005.0
20260508215152 90 0 0.0 0.0 0.00 0.00 0.00 55 1005.0
20260508213627 90 0 0.0 0.0 0.00 0.00 0.00 54 1005.0
20260508212102 90 0 0.0 0.0 0.00 0.00 0.00 54 1005.0
20260508210537 90 0 0.0 0.0 0.00 0.00 0.00 54 1005.0
20260508205013 90 0 0.0 0.0 0.00 0.00 0.00 54 1004.0
20260508203448 90 0 0.0 0.0 0.00 0.00 0.00 55 1004.0
20260508201923 90 0 0.0 0.0 0.00 0.00 0.00 54 1004.0
20260508200358 90 0 0.0 0.0 0.00 0.00 0.00 55 1004.0
20260508194833 90 0 0.0 0.0 0.00 0.00 0.00 54 1004.0
20260508193309 90 0 0.0 0.0 0.00 0.00 0.00 54 1004.0
20260508191744 89 0 0.0 0.0 0.00 0.00 0.00 54 1004.0
20260508190220 89 0 0.0 0.0 0.00 0.00 0.00 55 1004.0
20260508184655 90 0 0.0 0.0 0.00 0.00 0.00 54 1004.0
20260508183130 90 0 0.0 0.0 0.00 0.00 0.00 53 1005.0
20260508181606 90 0 0.0 0.0 0.00 0.00 0.00 53 1005.0
20260508180041 90 0 0.0 0.0 0.00 0.00 0.00 52 1005.0
20260508174516 90 0 0.0 0.0 0.00 0.00 0.00 52 1005.0
20260508172952 90 0 0.0 0.0 0.00 0.00 0.00 51 1005.0
20260508171427 89 0 0.0 0.0 0.00 0.00 0.00 52 1005.0
20260508165902 89 0 0.0 0.0 0.00 0.00 0.00 51 1005.0
20260508164337 89 0 0.0 0.0 0.00 0.00 0.00 50 1006.0
20260508162812 90 0 0.0 0.0 0.00 0.00 0.00 49 1006.0
20260508161247 90 0 0.0 0.0 0.00 0.00 0.00 47 1006.0
20260508155723 89 0 0.0 0.0 0.00 0.00 0.00 47 1006.0
20260508154158 89 0 0.0 0.0 0.00 0.00 0.00 46 1006.0
20260508152634 89 0 0.0 0.0 0.00 0.00 0.00 46 1006.0
20260508151109 88 0 0.0 0.0 0.00 0.00 0.00 45 1006.0
20260508145544 85 0 0.0 0.0 0.00 0.00 0.00 46 1006.0
20260508144020 82 0 0.0 0.0 0.00 0.00 0.00 49 1006.0
20260508142455 82 0 0.0 0.0 0.00 0.00 0.00 49 1006.0
20260508140931 82 0 0.0 0.0 0.00 0.00 0.00 49 1006.0
20260508135406 82 0 0.0 0.0 0.00 0.00 0.00 48 1005.0
20260508133842 82 0 0.0 0.0 0.00 0.00 0.00 49 1005.0
20260508132318 82 0 0.0 0.0 0.00 0.00 0.00 48 1005.0
20260508130753 82 0 0.0 0.0 0.00 0.00 0.00 49 1005.0
20260508125228 82 0 0.0 0.0 0.00 0.00 0.00 49 1004.0
20260508123703 82 0 0.0 0.0 0.00 0.00 0.00 47 1004.0
20260508122139 83 0 0.0 0.0 0.00 0.00 0.00 48 1004.0
20260508120614 82 0 0.0 0.0 0.00 0.00 0.00 48 1004.0
20260508115050 83 0 0.0 0.0 0.00 0.00 0.00 47 1003.0
20260508113525 82 0 0.0 0.0 0.00 0.00 0.00 47 1003.0
20260508112001 82 0 0.0 0.0 0.00 0.00 0.00 48 1003.0
20260508110436 82 0 0.0 0.0 0.00 0.00 0.00 47 1003.0
20260508104912 82 0 0.0 0.0 0.00 0.00 0.00 47 1002.0
20260508103347 82 0 0.0 0.0 0.00 0.00 0.00 46 1002.0